ABS-3A 1 40424U 15010A 21065.34189277 -.00000041 00000-0 00000-0 0 9992 2 40424 0.0133 150.6543 0002182 125.7630 8.0099 1.00271412 22068 EUTELSAT 115 WEST B 1 40425U 15010B 21065.51397225 -.00000040 00000-0 00000-0 0 9995 2 40425 0.0150 336.9918 0000169 265.2486 352.3267 1.00270962 22066 FALCON 9 R/B 1 40426U 15010C 21064.19190009 -.00000338 00000-0 21072-3 0 9995 2 40426 26.1836 15.9235 8200327 113.7414 345.6240 1.18685898 25692